Regional Weather Roundup
Issued by NWS Jackson, KY

Home | Current Version | Previous Version | Graphics & Text | Print | Product List | Glossary On
Versions: 1 2 3 4 5 6 7 8 9 10 11 12 13 14 15 16 17 18 19 20 21 22 23 24 25 26 27 28 29 30 31 32 33 34 35 36 37 38 39 40 41 42 43 44 45 46 47 48 49 50
000
ASUS43 KJKL 021810
RWRJKL

EAST KENTUCKY HOURLY WEATHER ROUNDUP
NATIONAL WEATHER SERVICE JACKSON KY
200 PM EDT WED SEP 02 2015

NOTE: "FAIR" INDICATES FEW OR NO CLOUDS BELOW 12,000 FEET WITH
NO SIGNIFICANT WEATHER AND/OR OBSTRUCTIONS TO VISIBILITY.

* THESE REPORTS ARE NOT UNDER NWS QUALITY CONTROL AND MAY NOT
  REPORT WEATHER SUCH AS PRECIPITATION AND FOG.

KYZ079-080-083-085-087-088-110-112-115-119-120-021900
...EASTERN KENTUCKY...

CITY           SKY/WX    TMP DP  RH WIND       PRES   REMARKS
JACKSON        MOSUNNY   86  65  49 VRB5      30.14F
6HR MIN TEMP:  68; 6HR MAX TEMP:  87;

LONDON         MOSUNNY   89  60  37 CALM      30.13F
6HR MIN TEMP:  67; 6HR MAX TEMP:  90;

SOMERSET*      PTSUNNY   82  63  51 N3        30.13F
MONTICELLO*    MOSUNNY   89  65  44 VRB6      30.14F HX  90
6HR MIN TEMP:  65; 6HR MAX TEMP:  90;

WILLIAMSBURG*  MOSUNNY   84  66  54 CALM      30.13F
MIDDLESBORO*   MOSUNNY   86  68  54 NE3       30.12F
6HR MIN TEMP:  66; 6HR MAX TEMP:  86;

HARLAN APT*      N/A     84  61  45 MISG      30.14F
HAZARD APT*    PTCLDY    86  64  48 CALM      30.13F
BLACK MTN*       N/A     75  64  69 NE3         N/A
PIKEVILLE APT* MOSUNNY   84  66  54 NW5       30.13F
BIG SANDY*     CLEAR     85  66  53 N5        30.12F
6HR MIN TEMP:  67; 6HR MAX TEMP:  86;

MOREHEAD APT*  PTCLDY    84  64  51 NW5       30.13F
$$

KYZ035-036-041-042-044-050-067-078-099-021900
...CENTRAL KENTUCKY...

CITY           SKY/WX    TMP DP  RH WIND       PRES   REMARKS
MT STERLING*   MOSUNNY   88  66  48 N3        30.13F HX  90
FLEMING/MASON* SUNNY     86  68  54 W3        30.12F
DANVILLE*      MOSUNNY   88  63  42 NW3       30.13F
RICHMOND*      MOSUNNY   88  61  40 CALM      30.11F
LEXINGTON      SUNNY     86  65  49 VRB7      30.12F
6HR MIN TEMP:  67; 6HR MAX TEMP:  89;

FRANKFORT      SUNNY     86  66  51 W5        30.11F
6HR MIN TEMP:  66; 6HR MAX TEMP:  87;

$$

KYZ091>093-OHZ055-061-077-WVZ005-015-034-035-042-021900
...SOUTHERN OHIO/WEST VIRGINIA...

CITY           SKY/WX    TMP DP  RH WIND       PRES   REMARKS
COVINGTON      MOSUNNY   88  67  49 CALM      30.10F HX  91
COLUMBUS       PTSUNNY   83  67  58 SW9       30.08F
DAYTON         PTSUNNY   87  71  58 NW8       30.09F HX  93
WILMINGTON     MOSUNNY   75  69  81 SE9       30.11F
HUNTINGTON     MOSUNNY   85  63  47 CALM      30.09F
CHARLESTON     PTSUNNY   87  65  47 CALM      30.08F
PINEVILLE*     PTSUNNY   84  69  61 MISG      30.19S
BECKLEY        MOSUNNY   78  62  57 N7        30.18F
BLUEFIELD      MOSUNNY   81  60  48 VRB5      30.20F
$$

VAZ002-007-008-TNZ017-027-036-066-071-021900
...SOUTHWEST VIRGINIA/EAST TENNESSEE...

CITY           SKY/WX    TMP DP  RH WIND       PRES   REMARKS
WISE*          PTSUNNY   81  61  50 N8        30.21F
JONESVILLE*    CLEAR     88  64  45 CALM      30.15F
ABINGDON*      PTSUNNY   86  60  41 CALM      30.16S
BRISTOL        MOSUNNY   87  64  46 CALM      30.12F
KNOXVILLE      PTSUNNY   88  67  49 CALM      30.09F HX  91
OAK RIDGE      MOSUNNY   88  68  51 CALM      30.11F HX  91
CROSSVILLE     PTSUNNY   83  62  49 CALM      30.16F
NASHVILLE      PTSUNNY   91  66  43 N5        30.09F HX  93
$$

...KEY TO REMARKS...
VSB - VISIBILITY IN MILES
WCI - WIND CHILL INDEX
HX  - HEAT INDEX

$$


USA.gov is the U.S. government's official web portal to all federal, state and local government web resources and services.